Weather History for KJYO - March, 2014

Change the Weather History Date:

Sunday, March 2, 2014

  Actual Average (KIAD) Record (KIAD)
Temperature  
Mean Temperature 42 °F 40 °F  
Max Temperature 51 °F 51 °F 77 °F (1972)
Min Temperature 33 °F 29 °F 12 °F (1967)
Degree Days  
Heating Degree Days 23 25  
Month to date heating degree days 51  
Since 1 July heating degree days 3641  
Cooling Degree Days 0 0  
Month to date cooling degree days 0  
Year to date cooling degree days 0  
Moisture  
Dew Point 32 °F    
Average Humidity 81    
Maximum Humidity 100    
Minimum Humidity 47    
Precipitation  
Precipitation 0.28 in 0.09 in 1.51 in (1994)
Month to date precipitation 0.18  
Year to date precipitation 5.60  
Snow  
Snow 0.00 in 0.10 in 5.10 in (2009)
Month to date snowfall 0.3  
Since 1 July snowfall 19.2  
Snow Depth -    
Sea Level Pressure  
Sea Level Pressure 30.05 in    
Wind  
Wind Speed 3 mph (NNE)    
Max Wind Speed 15 mph    
Max Gust Speed 21 mph    
Visibility 7 miles    
Events Rain , Snow    
T = Trace of Precipitation, MM = Missing Value Source: NWS Daily Summary

Daily Weather History Graph

Daily Weather History Graph

Search for Another Location

Airport or City:

Trip Planner

Search our weather history database for the weather conditions in past years. The results will help you decide how hot, cold, wet, or windy it might be!

Date:

Astronomy

Mar. 02, 2014 Rise Set
Actual Time 6:41 AM EST 6:03 PM EST
Civil Twilight 6:14 AM EST 6:30 PM EST
Nautical Twilight 5:43 AM EST 7:01 PM EST
Astronomical Twilight 5:12 AM EST 7:32 PM EST
Moon 7:12 AM EST (3/2) 7:56 PM EST (3/2)
Length of Visible Light 12h 16m
Length of Day
11h 22m
Waxing Crescent, 3% of the Moon is Illuminated
Mar 2
Waxing Crescent
Mar 8
First Quarter
Mar 16
Full
Mar 23
Last Quarter
Mar 30
New

Hourly Weather History & Observations

Time (EST) Temp. Windchill Dew Point Humidity Pressure Visibility Wind Dir Wind Speed Gust Speed Precip Events Conditions
12:15 AM 35.6 °F - 26.6 °F 70% 30.16 in 10.0 mi North - - N/A   Overcast
12:35 AM 35.6 °F - 28.4 °F 75% 30.16 in 10.0 mi Calm Calm - N/A   Overcast
12:55 AM 35.6 °F - 28.4 °F 75% 30.14 in 10.0 mi Calm Calm - N/A   Overcast
1:15 AM 33.8 °F - 28.4 °F 81% 30.14 in 10.0 mi North - - N/A   Overcast
1:35 AM 33.8 °F - 28.4 °F 81% 30.14 in 10.0 mi North - - N/A   Overcast
1:55 AM 35.6 °F - 26.6 °F 70% 30.13 in 10.0 mi Calm Calm - N/A   Overcast
2:15 AM 35.6 °F - 28.4 °F 75% 30.12 in 10.0 mi North - - N/A   Overcast
2:35 AM 35.6 °F - 26.6 °F 70% 30.11 in 10.0 mi North - - N/A   Overcast
2:55 AM 35.6 °F - 28.4 °F 75% 30.10 in 10.0 mi North - - N/A   Overcast
3:15 AM 33.8 °F - 28.4 °F 81% 30.10 in 10.0 mi North - - N/A   Overcast
3:35 AM 33.8 °F - 28.4 °F 81% 30.10 in 10.0 mi Calm Calm - N/A   Overcast
3:55 AM 33.8 °F - 28.4 °F 81% 30.09 in 10.0 mi North - - N/A   Overcast
4:15 AM 33.8 °F - 28.4 °F 81% 30.09 in 10.0 mi North - - N/A   Overcast
4:35 AM 33.8 °F - 28.4 °F 81% 30.07 in 10.0 mi North - - N/A   Overcast
4:55 AM 33.8 °F - 28.4 °F 81% 30.07 in 10.0 mi Calm Calm - N/A   Overcast
5:15 AM 35.6 °F - 28.4 °F 75% 30.06 in 10.0 mi North - - N/A   Overcast
5:35 AM 35.6 °F - 30.2 °F 81% 30.06 in 10.0 mi Calm Calm - N/A   Overcast
5:55 AM 35.6 °F - 28.4 °F 75% 30.06 in 10.0 mi Calm Calm - N/A   Overcast
6:15 AM 35.6 °F - 28.4 °F 75% 30.07 in 10.0 mi North - - N/A   Overcast
6:35 AM 35.6 °F - 28.4 °F 75% 30.08 in 10.0 mi North - - N/A   Overcast
6:55 AM 35.6 °F - 28.4 °F 75% 30.08 in 10.0 mi North - - N/A   Overcast
7:15 AM 35.6 °F - 28.4 °F 75% 30.06 in 10.0 mi North - - N/A   Overcast
7:35 AM 35.6 °F - 28.4 °F 75% 30.07 in 10.0 mi North - - N/A   Overcast
7:55 AM 35.6 °F - 28.4 °F 75% 30.07 in 10.0 mi North - - N/A   Overcast
8:15 AM 37.4 °F - 28.4 °F 70% 30.08 in 10.0 mi North - - N/A   Overcast
8:35 AM 37.4 °F - 28.4 °F 70% 30.07 in 10.0 mi Calm Calm - N/A   Overcast
8:55 AM 39.2 °F - 28.4 °F 65% 30.07 in 10.0 mi North - - N/A   Overcast
9:15 AM 41.0 °F - 28.4 °F 61% 30.07 in 10.0 mi Calm Calm - N/A   Overcast
9:35 AM 41.0 °F - 28.4 °F 61% 30.06 in 10.0 mi North - - N/A   Overcast
9:55 AM 42.8 °F - 28.4 °F 57% 30.06 in 10.0 mi North - - N/A   Overcast
10:15 AM 44.6 °F - 30.2 °F 57% 30.06 in 10.0 mi North - - N/A   Overcast
10:35 AM 46.4 °F - 30.2 °F 53% 30.04 in 10.0 mi North - - N/A   Mostly Cloudy
10:55 AM 48.2 °F - 30.2 °F 50% 30.04 in 10.0 mi North - - N/A   Mostly Cloudy
11:15 AM 48.2 °F - 30.2 °F 50% 30.03 in 10.0 mi North - - N/A   Overcast
11:35 AM 51.8 °F - 32.0 °F 47% 30.03 in 10.0 mi North - - N/A   Overcast
11:55 AM 50.0 °F - 32.0 °F 50% 30.02 in 10.0 mi North - - N/A   Overcast
12:15 PM 50.0 °F - 32.0 °F 50% 30.01 in 10.0 mi North - - N/A   Overcast
12:35 PM 48.2 °F - 32.0 °F 54% 30.02 in 10.0 mi North - - N/A   Overcast
12:55 PM 46.4 °F 40.1 °F 30.2 °F 53% 30.02 in 10.0 mi NNE 15.0 mph 20.7 mph N/A   Overcast
1:15 PM 44.6 °F 39.2 °F 30.2 °F 57% 30.03 in 10.0 mi North 10.4 mph 19.6 mph N/A   Overcast
1:35 PM 42.8 °F 37.5 °F 30.2 °F 61% 30.02 in 10.0 mi NNE 9.2 mph 18.4 mph N/A   Overcast
1:55 PM 42.8 °F 37.5 °F 30.2 °F 61% 30.02 in 10.0 mi North 9.2 mph 18.4 mph N/A   Overcast
2:15 PM 42.8 °F 36.6 °F 32.0 °F 66% 30.02 in 10.0 mi NNE 11.5 mph 18.4 mph N/A   Overcast
2:35 PM 41.0 °F 36.4 °F 35.6 °F 81% 30.03 in 7.0 mi North 6.9 mph 17.3 mph N/A Rain Light Rain
2:55 PM 41.0 °F 38.0 °F 39.2 °F 93% 30.03 in 4.0 mi NW 4.6 mph - N/A Rain Rain
3:15 PM 41.0 °F 37.1 °F 39.2 °F 93% 30.03 in 2.5 mi North 5.8 mph - 0.02 in Rain Rain
3:35 PM 41.0 °F 37.1 °F 41.0 °F 100% 30.03 in 2.0 mi North 5.8 mph - 0.07 in Rain Rain
3:55 PM 41.0 °F 39.0 °F 41.0 °F 100% 30.02 in 2.0 mi North 3.5 mph - 0.10 in Rain Rain
4:10 PM 39.2 °F - 39.2 °F 100% 30.03 in 1.8 mi Calm Calm - 0.02 in Rain Rain
4:35 PM 39.2 °F - 39.2 °F 100% 30.02 in 1.8 mi Calm Calm - 0.05 in Rain Rain
4:55 PM 39.2 °F - 39.2 °F 100% 30.01 in 1.8 mi North - - 0.06 in Rain Rain
5:15 PM 37.4 °F - 37.4 °F 100% 30.02 in 1.8 mi Calm Calm - N/A Rain Rain
5:35 PM 37.4 °F 34.9 °F 37.4 °F 100% 30.02 in 2.0 mi North 3.5 mph - N/A Rain Light Rain
5:55 PM 37.4 °F 34.9 °F 37.4 °F 100% 30.03 in 3.0 mi NNE 3.5 mph - N/A   Overcast
6:15 PM 37.4 °F 34.9 °F 37.4 °F 100% 30.03 in 3.0 mi NE 3.5 mph - N/A   Overcast
6:35 PM 37.4 °F 33.8 °F 37.4 °F 100% 30.03 in 3.0 mi NNE 4.6 mph - N/A   Overcast
6:55 PM 37.4 °F 34.9 °F 37.4 °F 100% 30.03 in 3.0 mi NE 3.5 mph - N/A Rain Light Rain
7:15 PM 37.4 °F 34.9 °F 37.4 °F 100% 30.03 in 2.5 mi NE 3.5 mph - 0.01 in Rain Light Rain
7:35 PM 37.4 °F 34.9 °F 37.4 °F 100% 30.02 in 1.8 mi ENE 3.5 mph - 0.01 in Rain Light Rain
7:55 PM 37.4 °F - 37.4 °F 100% 30.02 in 1.5 mi Calm Calm - 0.01 in Rain Light Rain
8:15 PM 37.4 °F 34.9 °F 37.4 °F 100% 30.03 in 1.5 mi North 3.5 mph - N/A   Overcast
8:35 PM 37.4 °F 34.9 °F 37.4 °F 100% 30.03 in 1.5 mi NNE 3.5 mph - N/A Rain Light Rain
8:50 PM 37.4 °F 32.8 °F 37.4 °F 100% 30.03 in 2.0 mi NNE 5.8 mph - N/A   Overcast
9:15 PM 37.4 °F 32.1 °F 37.4 °F 100% 30.03 in 2.5 mi NNE 6.9 mph - N/A   Overcast
9:35 PM 37.4 °F 32.8 °F 37.4 °F 100% 30.03 in 2.5 mi NNE 5.8 mph - N/A   Light Drizzle
9:55 PM 37.4 °F 31.4 °F 37.4 °F 100% 30.03 in 2.5 mi NNE 8.1 mph - N/A   Light Drizzle
10:15 PM 35.6 °F 31.7 °F 35.6 °F 100% 30.02 in 2.5 mi NNE 4.6 mph - N/A Rain Light Rain
10:35 PM 35.6 °F 29.2 °F 35.6 °F 100% 30.03 in 2.0 mi NNE 8.1 mph - N/A Rain Rain
10:55 PM 35.6 °F 28.6 °F 35.6 °F 100% 30.02 in 1.5 mi NNE 9.2 mph - 0.02 in Rain Rain
11:15 PM 35.6 °F 31.7 °F 35.6 °F 100% 30.02 in 1.5 mi North 4.6 mph - 0.01 in Rain Light Rain
11:35 PM 35.6 °F - 35.6 °F 100% 30.02 in 1.5 mi Calm Calm - 0.06 in Snow Light Snow
11:55 PM 33.8 °F 27.7 °F 33.8 °F 100% 30.01 in 3.0 mi North 6.9 mph - 0.09 in   Overcast